Flag for United Kingdom Weather past 2 weeks in Bradford, England, United Kingdom

Now
66 °F

Scattered clouds.


Feels Like: 66 °F
Forecast: 54 / 68 °F
Wind: 10 mph from Southeast

Location: Leeds And Bradford

Current Time: Aug 2, 2015 at 3:50:43 PM

Latest Report: Aug 2, 2015 at 3:20 PM


Visibility: N/A

Pressure: 29.98 "Hg

Humidity: 83%

Dew point: 61 °F

Location of BradfordLocation

Historic Weather in Bradford — Graph

°F

Bradford temperature yesterday

Maximum temperature yesterday: 61 °F (at 10:50 AM)
Minimum temperature yesterday: 50 °F (at 3:20 AM)
Average temperature yesterday: 55 °F

Past Weeks' High & Low Weather Summary

 TemperatureHumidityPressure
High68 °F (Jul 20, 6:20 PM)100% (Jul 19, 8:20 AM)30.12 "Hg (Jul 19, 8:20 AM)
Low45 °F (Jul 24, 3:20 AM)55% (Jul 18, 2:20 PM)29.33 "Hg (Jul 26, 11:50 PM)
Average55 °F84%29.83 "Hg
* Reported Jul 18 2:20 PM — Aug 2 2:50 PM, Bradford, Weather by CustomWeather, © 2015

Note: Actual official high and low records may vary slightly from our data, if they occured in-between our weather recording intervals... More about our weather records

Advertising

Bradford weather history for previous 24 hours

 ConditionsComfort  
Time TempWeatherWind HumidityBarometerVisibility
2:50 PM
Sun, Aug 2
66 °FScattered clouds.8 mph78%29.98 "HgN/A
2:20 PM64 °FScattered clouds.9 mph73%29.98 "HgN/A
1:50 PM63 °FScattered clouds.10 mph77%30.01 "HgN/A
1:20 PM63 °FScattered clouds.7 mph77%30.01 "HgN/A
12:50 PM59 °FScattered clouds.6 mph88%30.04 "HgN/A
12:20 PM59 °FScattered clouds.5 mph82%30.04 "HgN/A
11:50 AM59 °FScattered clouds.5 mph82%30.04 "HgN/A
11:20 AM57 °FScattered clouds.6 mph82%30.04 "HgN/A
10:50 AM57 °FPassing clouds.7 mph82%30.04 "HgN/A
10:20 AM55 °FScattered clouds.6 mph88%30.04 "HgN/A
9:50 AM55 °FScattered clouds.6 mph88%30.04 "HgN/A
9:20 AM54 °FPassing clouds.6 mph94%30.04 "HgN/A
8:50 AM54 °FPassing clouds.3 mph94%30.04 "HgN/A
8:20 AM54 °FPassing clouds.3 mph94%30.04 "HgN/A
7:50 AM52 °FPassing clouds.1 mph94%30.04 "HgN/A
7:20 AM52 °FSprinkles. Passing clouds.2 mph94%30.04 "HgN/A
6:50 AM52 °FSunny.2 mph94%30.04 "Hg10 mi
6:20 AM50 °FClear.1 mph100%30.04 "Hg10 mi
5:50 AM50 °FClear.1 mph94%30.04 "Hg10 mi
5:20 AM52 °FClear.1 mph94%30.01 "Hg10 mi
4:50 AM52 °FClear.2 mph94%30.01 "Hg10 mi
4:20 AM52 °FClear.2 mph94%30.01 "Hg10 mi
3:50 AM52 °FClear.3 mph94%30.01 "Hg10 mi
3:20 AM52 °FClear.3 mph94%30.01 "Hg10 mi
2:50 AM52 °FPassing clouds.5 mph94%30.01 "HgN/A
2:20 AM52 °FClear.3 mph94%30.01 "Hg10 mi
1:50 AM52 °FClear.2 mph94%30.01 "Hg10 mi
1:20 AM52 °FClear.3 mph94%30.01 "Hg10 mi
12:20 AM52 °FClear.3 mph94%30.01 "Hg10 mi
11:50 PM
Sat, Aug 1
52 °FClear.1 mph94%30.01 "Hg10 mi
10:20 PM52 °FClear.2 mph94%29.98 "Hg10 mi
9:50 PM54 °FSunny.5 mph88%29.98 "Hg10 mi
9:20 PM54 °FPassing clouds.8 mph94%29.98 "HgN/A
8:50 PM55 °FPassing clouds.7 mph88%29.95 "HgN/A
8:20 PM57 °FPassing clouds.9 mph82%29.95 "HgN/A
7:50 PM57 °FScattered clouds.8 mph88%29.95 "HgN/A
7:20 PM57 °FScattered clouds.8 mph88%29.95 "HgN/A
6:50 PM57 °FScattered clouds.8 mph88%29.92 "HgN/A
6:20 PM57 °FScattered clouds.7 mph88%29.92 "HgN/A
5:50 PM57 °FScattered clouds.10 mph88%29.92 "HgN/A
5:20 PM57 °FScattered clouds.8 mph88%29.92 "HgN/A
4:50 PM55 °FSprinkles. Scattered clouds.12 mph94%29.92 "Hg6 mi
4:20 PM57 °FSprinkles. Scattered clouds.7 mph94%29.92 "HgN/A
3:50 PM57 °FScattered clouds.6 mph88%29.92 "HgN/A
3:20 PM57 °FScattered clouds.7 mph88%29.92 "HgN/A
Weather by CustomWeather, © 2015

See weather overviewHow to use our weather pages